Regional Weather Roundup
Issued by NWS Green Bay, WI

Current Version |  Previous Version |  Text Only |  Print | Product List |  Glossary On
Versions: 1 2 3 4 5 6 7 8 9 10 11 12 13 14 15 16 17 18 19 20 21 22 23 24 25 26 27 28 29 30 31 32 33 34 35 36 37 38 39 40 41 42 43 44 45 46 47 48 49 50
748
ASUS43 KGRB 201510
RWRGRB

NORTH-CENTRAL AND NORTHEAST WISCONSIN REGIONAL WEATHER ROUNDUP
NATIONAL WEATHER SERVICE GREEN BAY WI
1000 AM CDT SAT JUL 20 2024

WIZ005-009-010>012-018-019-201600-
NORTH CENTRAL WISCONSIN

CITY           SKY/WX    TMP DP  RH WIND       PRES   REMARKS
IRONWOOD       SUNNY     74  64  71 W9        30.10S
MANITOWISH WTR NOT AVBL
ARBOR VITAE    NOT AVBL
EAGLE RIVER    MOSUNNY   73  60  63 W9        30.11S
LAND O LAKES   SUNNY     73  61  65 W5        30.12S
RHINELANDER    MOSUNNY   74  60  61 W9        30.12F
PHILLIPS       SUNNY     70  62  76 SW3       30.12F
ANTIGO         SUNNY     73  60  63 NW9       30.13F
TOMAHAWK       MOSUNNY   75  60  60 NW8       30.13S
MERRILL        SUNNY     73  63  69 W6        30.11F
$$

WIZ013-073-201600-
NORTHEAST WISCONSIN

CITY           SKY/WX    TMP DP  RH WIND       PRES   REMARKS
IRON MOUNTAIN  MOSUNNY   75  62  64 NW6       30.06F
MARINETTE      SUNNY     75  62  64 VRB5      30.08F
OCONTO         SUNNY     77  58  52 W7        30.08S
$$

WIZ017-030-035>037-045-201600-
CENTRAL WISCONSIN

CITY           SKY/WX    TMP DP  RH WIND       PRES   REMARKS
MEDFORD        SUNNY     72  62  70 CALM      30.13F
WAUSAU         NOT AVBL
MOSINEE        SUNNY     73  63  68 NW8       30.13S
MARSHFIELD     SUNNY     73  62  68 W8        30.13F
WISC RAPIDS    SUNNY     75  60  59 NW8       30.14S
STEVENS POINT    N/A     77  61  58 W6        30.13F
WAUPACA        SUNNY     78  62  56 NW3       30.13S
SHAWANO        SUNNY     77  65  67 W6        30.11S
CLINTONVILLE   SUNNY     76  61  60 W8        30.12F
WAUTOMA        SUNNY     76  59  55 NW9       30.12F
$$

WIZ038-039-048-051-201600-
FOX VALLEY

CITY           SKY/WX    TMP DP  RH WIND       PRES   REMARKS
NWS GREEN BAY  SUNNY     78  61  55 W9        30.10S
APPLETON       MOSUNNY   75  63  64 W7        30.12F
OSHKOSH        SUNNY     76  62  62 NW8       30.11F
FOND DU LAC    SUNNY     74  61  63 W5        30.13F
$$

WIZ022-050-052-201600-
EAST CENTRAL WISCONSIN

CITY           SKY/WX    TMP DP  RH WIND       PRES   REMARKS
EPHRAIM        SUNNY     72  59  63 W7        30.07S
WASHINGTON ISL MOSUNNY   71  67  87 W8        30.05S
STURGEON BAY   SUNNY     75  60  59 W8        30.09F
MANITOWOC      SUNNY     76  61  59 W8        30.11S
SHEBOYGAN      SUNNY     79  59  50 W9        30.11F
$$

LMZ563-521-522-541>543-201600-
LAKESHORE

STATION/POSITION TIME  TEMP    WIND        PRES    VSBY  WAVE
                       AIR SEA DIR/SP/G                  HT/PER
                 (UTC) (F)     (DEG/KT/KT) (MB)    (MI)  (FT/S)
SHEBOYGAN LKSHOR 1500   75     300/  6/  9 1019.1F
KEWAUNEE LKSHORE 1430   75     300/  6/  9 1017.8F
NORTHPORT PIER   1400   73     250/  7/ 12   N/A
N MID LAKE BUOY  1450   67 66  240/  8/ 10 1018.0S         2/ 5
SISTER BAY LKSHO 1458   76     250/ 10/ 11   N/A
CHAMBERS ISLAND  1430   73                   N/A
GREEN BAY WEST   1430   76     270/  5/  9 1017.6F
MENOMINEE LKSHOR 1430   74 75  260/  3/  5 1016.8F
$$